Regional Weather Roundup
Issued by NWS

Home | Current Version | Previous Version | Graphics & Text | Print | Product List | Glossary Off
Versions: 1 2 3 4 5 6 7 8 9 10 11 12 13 14 15 16 17 18 19 20 21 22 23 24 25 26 27 28 29 30 31 32 33 34 35 36 37 38 39 40 41 42 43 44 45 46 47 48 49 50

319
ASUS43 KMKX 241321
RWRWI

WISCONSIN REGIONAL WEATHER ROUNDUP
NATIONAL WEATHER SERVICE MILWAUKEE/SULLIVAN WI
800 AM CDT TUE MAY 24 2016

NOTE: "FAIR" INDICATES FEW OR NO CLOUDS BELOW 12,000 FEET WITH NO
SIGNIFICANT WEATHER AND/OR OBSTRUCTIONS TO VISIBILITY.

WIZ001-002-006>008-014>016-023>028-241400-
NORTHWEST WISCONSIN

CITY           SKY/WX    TMP DP  RH WIND       PRES   REMARKS
SUPERIOR ARPT  RAIN      57  57 100 CALM      29.84S
ASHLAND        CLOUDY    62  62 100 E5        29.84F
HAYWARD        CLOUDY    65  60  84 S8        29.84S
SIREN          CLOUDY    64  62  93 SW3       29.83S
CUMBERLAND     CLOUDY    64  61  88 S8        29.85S
RICE LAKE      MOSUNNY   65  60  83 S6        29.86F
CHETEK         MOSUNNY   64  63  95 S5        29.85F
LADYSMITH      LGT RAIN  64  61  93 S9        29.89S
EAU CLAIRE     CLOUDY    66  63  90 S8        29.85F
MENOMONIE      CLOUDY    65  65  99 E3        29.85F
NEW RICHMOND   MOSUNNY   67  60  76 SW9       29.84S
OSCEOLA        CLOUDY    67  62  84 S7        29.86S
$$

WIZ003>005-009-010-017-018-241400-
NORTH CENTRAL WISCONSIN

CITY           SKY/WX    TMP DP  RH WIND       PRES   REMARKS
MANITOWISH WTR CLOUDY    62  62 100 S3        29.89S
ARBOR VITAE    CLOUDY    63  61  94 S5        29.90R
WOODRUFF       CLOUDY    63  61  94 S5        29.90R
RHINELANDER    LGT RAIN  63  61  93 SW5       29.92R
EAGLE RIVER    LGT RAIN  62  62  99 CALM      29.90S
LAND O LAKES   LGT RAIN  61  60  98 SE3       29.90F
PHILLIPS       CLOUDY    64  62  94 S9        29.88R
TOMAHAWK       CLOUDY    62  61  96 CALM      29.91S FOG
MEDFORD        CLOUDY    63  61  94 S5        29.90S
MERRILL        CLOUDY    61  61 100 CALM      29.92S
$$

WIZ029-030-035-036-043>047-241400-
CENTRAL WISCONSIN

CITY           SKY/WX    TMP DP  RH WIND       PRES   REMARKS
WAUSAU         LGT RAIN  61  56  83 CALM      29.90S
MOSINEE        PTSUNNY   57  55  94 CALM      29.92R
MARSHFIELD     CLOUDY    63  55  75 CALM      29.89S
STEVENS POINT  CLOUDY    60  54  78 CALM      29.91S
WAUPACA        CLOUDY    66  52  61 SE5       29.91F
WAUTOMA        CLOUDY    63  51  65 CALM      29.92S
WISC RAPIDS    CLOUDY    64  54  69 S3        29.91S
CAMP DOUGLAS   NOT AVBL
$$

WIZ011>013-019>022-031-037>040-048>050-241400-
NORTHEAST WISCONSIN

CITY           SKY/WX    TMP DP  RH WIND       PRES   REMARKS
ANTIGO         LGT RAIN  61  60  96 CALM      29.93S
SHAWANO        CLOUDY    66  51  59 CALM      29.91F
OCONTO         CLOUDY    64  52  64 CALM      29.91R
STURGEON BAY   NOT AVBL
GREEN BAY      SUNNY     68  51  54 S6        29.91S
MANITOWOC      PTSUNNY   65  53  65 S3        29.94R
APPLETON       PTSUNNY   66  48  52 S7        29.91R
CLINTONVILLE   CLOUDY    64  50  59 SW3       29.91S
OSHKOSH        SUNNY     67  51  56 S9        29.92R
$$

WIZ032>034-041-042-053>061-241400-
SOUTHWEST WISCONSIN

CITY           SKY/WX    TMP DP  RH WIND       PRES   REMARKS
LA CROSSE      CLOUDY    71  55  56 SE7       29.86S
SPARTA         CLOUDY    70  56  63 CALM      29.89R
VIROQUA        CLOUDY    68  56  63 SW8       29.90R
BOSCOBEL       MOSUNNY   73  57  57 SW8       29.89F
PRAIRIE DU CHI CLOUDY    70  55  59 CALM      29.88F
PLATTEVILLE    PTSUNNY   69  54  59 S6        29.93R
$$

WIZ056-057-062-063-064-067-068-241400-
SOUTH CENTRAL WISCONSIN

CITY           SKY/WX    TMP DP  RH WIND       PRES   REMARKS
REEDSBURG      SUNNY     68  53  58 CALM      29.89F
BARABOO/DELLS  SUNNY     69  50  50 S9        29.91F
LONE ROCK      SUNNY     69  53  56 S5        29.91F
MINERAL POINT  SUNNY     68  52  56 S7        29.93S
MADISON        PTSUNNY   67  50  54 S8        29.93S
MIDDLETON      MOSUNNY   69  51  51 SW8       29.94S
WATERTOWN      SUNNY     67  52  57 S6        29.95S
MONROE         PTSUNNY   66  52  59 S9        29.95S
JANESVILLE     MOSUNNY   70  52  52 SW5       29.95S
$$

WIZ051-052-058>065-066-070>072-241400-
SOUTHEAST WISCONSIN

CITY           SKY/WX    TMP DP  RH WIND       PRES   REMARKS
MILWAUKEE      MOSUNNY   68  50  52 SW8       29.98R
WAUKESHA       SUNNY     63  48  59 S5        29.99R
MILWAUKEE/TIMM SUNNY     66  46  48 CALM      29.98R
RACINE         MOSUNNY   68  50  52 SW10      30.00R
BURLINGTON     SUNNY     64  51  62 CALM      29.98S
KENOSHA        SUNNY     68  52  56 SW8       29.99R
FOND DU LAC    SUNNY     69  51  52 S8        29.93S
SHEBOYGAN      MOSUNNY   67  49  52 SW8       29.95R
WEST BEND      SUNNY     68  50  52 S5        29.96S
JUNEAU         SUNNY     66  52  59 SE6       29.96R
$$

LSZ147-162-241400-
LAKE SUPERIOR

STATION/POSITION TIME  TEMP    WIND        PRES    WAVE
                       AIR SEA DIR/SP/G            HT/PER
                 (UTC) (F)     (DEG/KT/KT) (MB)    (FT/S)
W MID LAKE BUOY  1250   47 38   CALM  /  2 1011.6R   1
DEVILS ISLAND    1300   59     160/  5/  5 1010.0F
SAXON HARBOR     1240   53      30/  1/  5 1010.5R
$$

LMZ867-665-643>646-241400-
LAKE MICHIGAN

STATION/POSITION TIME  TEMP    WIND        PRES    WAVE
                       AIR SEA DIR/SP/G            HT/PER
                 (UTC) (F)     (DEG/KT/KT) (MB)    (FT/S)
CHAMBERS ISLAND  1200   63     190/  6/ 10 1012.5R
N MID LAKE BUOY  1250   47 44  190/ 12/ 14 1012.8R   2/ 4
NORTHPORT PIER   1200   68     240/  3/  8 1012.5R
SISTER BAY       1149   62        CALM       N/A
ALGOMA LAKESHORE 1216          210/  7/  8   N/A
KEWAUNEE LAKESHO 1300   55     130/  2/  2 1012.7R
SHEBOYGAN LAKESH 1300   62     180/  6/  7 1014.5R
PORT WASHINGTON  1200   59      CALM  /  1 1015.2R
S MID LAKE BUOY  1250   51 47  180/  8/ 10 1015.6R   1
KENOSHA   LAKESH 1300   69     230/  7/ 12 1015.6R
$$

TC  - TEMPERATURE IN CELSIUS
VSB - VISIBILITY IN STATUTE MILES
WCI - WIND CHILL INDEX
HX  - HEAT INDEX





USA.gov is the U.S. government's official web portal to all federal, state and local government web resources and services.